カタログに戻る

STARLINK-3189

運用中通信VLEO
NORAD 51464·PAYLOAD·🇺🇸 United States

打ち上げ Feb 3, 2022 から Cape Canaveral Space Force Station

Loading…

次のパス (今後24時間)

TLE

最新Source: CelesTrak SupGP

元期: Sep 15, 2026, 01:11 UTC

1 51464C 22010J   26258.04979167  .00017204  00000+0  50834-3 0  2585
2 51464  53.1592 141.5575 0001313  80.3016  82.3263 15.34379730    18

AllMySatでSTARLINK-3189をリアルタイム追跡

Download on the App Store